Location: Aldenham
(51.6667°N, 0.3500°W)
Time: 01:11:15
(UTC+00:00)

Altair - Pass Details

Date: 18 February 2026
Orbit: 1502 x 1682 km, 47.2° (Epoch: 10 March)

Event Time Altitude Azimuth Distance (km) Brightness Sun altitude
Rises 04:59:53 0° 229° (SW) 4,630 - -20.8°
Reaches altitude 10° 05:02:59 10° 224° (SW) 3,658 - -20.3°
Exits shadow 05:04:21 15° 220° (SW) 3,252 8.8 -20.1°
Maximum altitude 05:11:40 49° 153° (SSE) 1,907 8.1 -18.9°
Drops below altitude 10° 05:20:37 10° 83° (E) 3,767 10.9 -17.6°
Sets 05:23:52 0° 78° (ENE) 4,778 11.8 -17.1°
